Preview of NWS' New Version of Forecast
This preview is not operational and should not be used for support decisions.

Regional Weather Roundup (RWR)

Issued by Gray - Portland, ME (GYX)

                            
000
ASUS41 KGYX 202110
RWRGYX
WEATHER ROUNDUP FOR MAINE AND NEW HAMPSHIRE
NATIONAL WEATHER SERVICE GRAY ME
500 PM EDT FRI SEP 20 2019

MEZ002-005-006-010-012-015-018-020-021-024-026-027-029-202200-
MAINE
  
CITY           SKY/WX    TMP DP  RH WIND       PRES   REMARKS
PORTLAND       FAIR      78  55  44 S6        30.05S                  
SANFORD        FAIR      79  55  43 W7        30.07S                  
BAR HARBOR     FAIR      75  59  57 VRB5      30.00F                  
WISCASSET      FAIR      76  55  48 SW7       30.04F                  
ROCKLAND       FAIR      76  59  55 W6        30.01F                  
FRYEBURG       FAIR      78  55  44 VRB3      30.07R                  
LEWISTONAUBURN FAIR      78  55  44 W6        30.05S                  
AUGUSTA        FAIR      77  54  44 W7        30.04F                  
WATERVILLE     FAIR      74  58  57 SW5       30.01S                  
BANGOR         FAIR      77  56  48 VRB7      30.00F                  
GREENVILLE       N/A     73  50  44 NW13      30.03S                  
MILLINOCKET    FAIR      77  54  44 W8        29.99S                  
HOULTON        FAIR      77  56  48 W9        29.94S                  
PRESQUE ISLE   PTSUNNY   75  60  59 W6        29.96S                  
FRENCHVILLE    FAIR      72  58  61 NW14      29.96F                  
CARIBOU        CLOUDY    74  58  57 W5        29.95S                  
$$

NHZ002-005-008-009-011-012-014-202200-
NEW HAMPSHIRE
  
CITY           SKY/WX    TMP DP  RH WIND       PRES   REMARKS
PORTSMOUTH     MOSUNNY   79  49  34 W6        30.05F                  
ROCHESTER      FAIR      79  53  40 CALM      30.07S                  
NASHUA         FAIR      80  51  36 VRB3      30.09S                  
MANCHESTER     FAIR      80  50  34 W7        30.07S                  
CONCORD        FAIR      78  49  35 W9        30.09R                  
LACONIA        FAIR      77  50  38 W8        30.10R                  
PLYMOUTH       FAIR      76  51  41 W8        30.09S                  
BERLIN         FAIR      74  51  44 VRB7      30.11S                  
WHITEFIELD     FAIR      74  51  44 W7        30.12S                  
JAFFREY        FAIR      76  45  33 NW7       30.14S                  
KEENE          FAIR      77  53  43 W5        30.12S                  
LEBANON        FAIR      80  52  37 VRB5      30.10F                  
MT WASHINGTON  MOSUNNY   54  45  71 NW30        N/A                   
$$

VTZ005-007-008-202200-
VERMONT
  
CITY           SKY/WX    TMP DP  RH WIND       PRES   REMARKS
ST JOHNSBURY     N/A     74  48  39 MISG      30.10S                  
MONTPELIER     FAIR      69  47  45 NW5       30.18S                  
BURLINGTON     FAIR      77  50  38 W3        30.12S                  
$$

MAZ007-012-024-CTZ003-RIZ002-NYZ038-NYZ072-202200-
SOUTHERN NEW ENGLAND AND NY
  
CITY           SKY/WX    TMP DP  RH WIND       PRES   REMARKS
BOSTON         FAIR      75  49  39 S7        30.08F                  
WORCESTER      FAIR      73  51  46 W8        30.14R                  
NANTUCKET      FAIR      67  57  70 W14       30.11S                  
PROVIDENCE     FAIR      78  51  38 NW9       30.10F                  
HARTFORD       FAIR      80  47  31 NW10      30.12S                  
ALBANY         FAIR      78  50  37 E3        30.15S                  
NEW YORK CITY  PTSUNNY   77  41  27 W7        30.14R                  
$$

ANZ081-ANZ082-ANZ150-NHZ014-MEZ023>029-202200-
COASTAL MARINE OBSERVATIONS
  
STATION/POSITION TIME  TEMP    WIND        PRES    WAVE
                       AIR SEA DIR/SP/G            HT/PER
                 (UTC) (F)     (DEG/KT/KT) (MB)    (FT/S)
MOUNT DESERT ROC 2100          240/ 16/ 17 1015.7F
MATINICUS ROCK   2050   60                 1016.1F
ISLE OF SHOALS   2000   70     190/ 10/ 10 1017.8F
JEFFREYS LEDGE   2038      63                N/A     8/13
CASHES LEDGE BUO 2050   61 60  240/ 10/ 14 1017.8F  10/15
GEORGES BANK BUO 2050   60 59              1019.5F  12/14
$$

.............KEY..............
   WCI - WIND CHILL
   TC  - TEMPERATURE IN CELSIUS
   VSB - VISIBILITY IN MILES
   HX  - HEAT INDEX
   FAIR- INDICATES FEW OR NO CLOUDS BELOW 12,000 FT, WITH NO 
         SIGNIFICANT WEATHER AND/OR OBSTRUCTIONS TO VISIBILITY.